Wetbulb
56.67 56.45 56.53 56.91 57.56 57.44 57.11 56.86 56.32 56.43 56.58 56.71 57.13 57.55 57.59 57.32 56.93 51.91 47.02 51.18 52.08 57.37 58.83 53.20 51.40 49.32 49.43 47.68 48.76 48.00 38.57 37.34 40.03 42.54 45.56 51.35 50.31 56.93 59.73 56.70 57.60 64.13 64.43 67.34 69.87
56.40 56.18 56.22 56.28 56.35 56.87 56.77 57.04 56.84 56.52 55.48 56.67 56.87 57.30 56.86 56.80 51.50 48.63 54.50 58.28 59.02 59.52 55.08 49.85 46.84 46.69 43.93 45.82 46.46 42.88 38.32 40.43 45.47 46.72 44.67 50.27 53.38 54.17 55.35 55.46 54.59 56.96 61.08 64.85 69.93
56.28 56.12 56.02 56.13 56.19 56.32 56.23 55.79 55.74 56.18 56.75 56.68 56.64 56.65 56.87 55.51 47.75 47.94 59.25 61.61 60.10 59.45 55.50 51.33 48.93 45.22 39.98 41.61 43.24 41.08 39.97 43.26 45.52 49.04 49.80 50.59 52.94 55.80 54.24 51.51 53.80 54.55 62.22 68.42 68.65
56.05 55.85 55.97 55.88 55.88 55.76 55.26 55.23 55.32 55.47 55.54 56.54 56.04 55.98 56.15 52.24 38.83 50.65 65.43 64.37 62.24 57.67 54.50 48.68 45.59 39.18 38.37 39.03 42.53 39.21 44.13 44.37 45.26 48.70 48.04 49.46 52.60 54.11 54.60 52.06 57.09 58.40 66.14 61.45 62.76
56.09 56.12 56.25 56.02 55.68 55.64 55.26 54.60 54.75 54.80 54.89 55.03 55.44 55.17 52.62 45.78 45.05 54.59 60.24 58.55 59.67 56.09 52.01 45.67 40.83 39.15 35.52 38.84 40.62 40.04 41.92 44.47 46.88 47.12 46.35 51.32 51.27 52.15 52.73 56.11 56.49 58.33 59.23 61.52 61.63
55.37 55.12 55.36 55.55 55.52 55.46 55.27 54.95 54.64 54.25 53.99 54.22 54.90 55.33 48.75 40.43 51.88 53.83 54.25 53.96 57.12 54.48 51.02 45.44 43.17 42.82 38.38 38.70 41.49 42.14 43.97 44.30 45.40 45.53 46.13 49.25 50.67 52.23 53.68 55.82 55.73 55.64 56.31 60.74 65.01
53.79 54.09 54.72 54.40 54.67 55.25 55.12 54.76 54.31 54.23 53.66 53.74 54.01 52.48 46.97 43.09 52.38 53.31 51.94 49.96 52.06 55.06 48.80 49.09 47.80 43.80 42.74 38.07 41.91 44.01 39.18 42.21 44.47 45.35 46.15 50.80 48.28 49.10 53.62 54.84 53.82 54.92 55.16 57.62 62.09
52.73 52.85 52.65 52.47 52.74 53.79 54.40 54.62 54.53 54.26 53.76 54.17 53.98 50.26 43.02 51.51 52.42 50.60 50.92 50.10 52.00 51.78 52.00 51.37 49.77 43.79 41.36 42.82 41.57 39.21 37.77 36.91 42.42 44.35 46.24 49.22 41.56 49.83 53.04 52.54 52.49 53.68 55.04 56.29 56.82
51.16 51.89 52.40 51.55 51.78 52.27 53.02 53.30 53.01 53.59 53.86 53.88 48.63 46.47 40.32 52.58 48.51 50.68 51.17 47.96 50.91 51.96 53.01 53.92 47.15 42.01 42.15 37.12 32.98 35.01 33.86 34.31 38.72 43.44 47.27 47.54 43.51 49.46 52.52 52.13 51.50 52.17 53.32 55.07 55.83
51.31 51.35 51.37 51.66 51.54 52.19 52.00 52.20 51.83 51.73 50.17 50.35 48.81 42.64 44.84 42.77 49.58 51.53 52.30 50.56 48.50 51.68 49.29 47.43 41.28 36.96 36.12 33.19 28.93 31.06 32.53 34.68 35.96 40.74 45.26 44.18 44.02 48.91 51.47 51.57 51.36 52.06 53.27 54.69 55.06
51.28 51.27 50.99 51.18 51.45 51.37 49.31 44.92 38.60 38.32 45.14 41.26 41.12 41.38 43.78 48.65 51.04 50.29 53.35 49.21 48.19 48.67 40.78 44.17 38.07 34.00 36.48 37.75 38.15 37.95 36.58 35.91 38.58 42.11 45.88 44.20 44.78 47.34 49.89 50.59 49.68 50.70 51.42 52.87 54.21
51.05 50.63 50.82 51.12 51.12 51.27 47.60 40.20 41.21 43.40 37.19 44.73 44.70 45.01 46.28 48.02 43.02 47.01 52.56 45.26 44.40 41.23 43.54 41.38 37.22 41.02 41.71 40.54 39.01 38.02 35.67 35.14 38.90 46.24 45.59 43.77 43.87 47.30 49.18 48.81 50.20 51.75 52.24 52.38 53.73
51.48 51.40 51.10 51.35 51.15 47.21 42.20 42.77 48.20 48.26 38.45 40.56 43.69 43.78 44.18 46.50 42.37 43.53 49.05 48.22 44.31 41.59 40.99 39.02 41.36 44.75 41.33 39.57 37.90 37.34 36.05 35.95 36.66 45.50 45.99 44.11 41.33 43.39 47.87 49.67 51.33 52.31 53.96 53.45 54.25
51.23 51.13 51.36 51.22 45.75 42.01 40.30 44.30 46.01 47.37 32.35 34.37 39.98 44.35 45.12 44.99 41.00 49.82 50.01 48.64 46.28 41.24 42.39 41.56 43.78 42.72 40.30 38.73 39.44 34.59 40.51 40.56 40.56 40.87 35.79 44.45 33.90 41.10 44.49 46.83 48.69 50.16 52.08 53.30 53.67
51.20 51.63 51.43 50.73 45.58 42.21 43.69 45.65 45.23 44.50 19.04 37.08 40.97 48.72 45.38 40.99 42.72 43.77 51.50 47.50 43.75 42.80 41.63 38.52 42.14 39.92 38.29 39.63 41.08 37.55 41.79 40.06 40.50 38.68 36.68 39.34 33.88 37.85 44.11 43.87 46.11 49.07 51.06 53.41 52.77
51.53 51.40 50.84 48.66 46.72 45.61 46.64 46.03 43.27 31.05 18.85 32.83 40.11 38.58 37.63 40.77 41.00 45.22 47.01 50.16 50.51 44.20 43.57 42.15 47.50 43.58 41.54 43.42 42.86 43.06 39.82 38.35 38.45 38.04 29.61 37.20 37.57 36.25 40.97 44.27 46.91 48.78 51.38 53.34 53.82
51.64 51.15 49.99 49.41 43.79 48.27 44.13 39.71 29.78 19.40 35.18 32.98 35.06 37.93 36.76 37.73 38.34 39.66 42.53 41.59 40.33 35.52 34.98 40.20 41.52 45.05 44.57 39.95 41.78 40.59 33.85 26.46 25.27 27.55 29.27 39.42 36.08 38.35 43.54 47.13 48.47 48.65 50.89 52.34 52.77
49.87 49.78 47.75 48.53 48.34 49.27 44.49 32.88 23.12 30.30 31.27 37.86 37.68 38.03 34.07 38.35 38.11 38.15 41.67 38.56 42.88 39.57 36.28 33.70 31.96 41.43 44.64 39.68 37.57 37.75 34.65 26.51 23.86 25.44 31.73 40.51 33.29 38.25 45.79 48.79 48.85 51.26 50.17 50.07 51.07
49.01 44.39 44.98 49.81 51.99 48.89 39.99 28.56 25.64 31.62 36.20 35.67 36.31 32.62 33.84 36.15 35.86 38.03 40.33 39.85 42.24 41.81 36.19 35.58 36.37 45.71 45.04 43.99 41.51 36.05 32.27 36.95 31.57 34.08 32.44 33.44 37.81 44.34 46.54 46.46 46.97 46.26 47.77 47.51 48.76
44.93 41.70 44.33 51.16 51.63 46.47 35.95 30.84 32.78 37.54 38.45 38.35 31.59 35.58 30.86 33.98 33.47 36.17 39.15 43.62 42.38 43.77 43.55 39.67 34.60 42.35 44.39 44.75 42.56 38.03 39.30 32.67 32.20 25.20 26.09 32.71 35.80 35.58 43.76 44.69 45.32 44.93 46.51 51.72 56.38
40.49 38.05 47.18 49.86 50.26 42.29 32.82 34.70 35.93 40.18 41.32 38.01 36.31 33.59 34.64 33.37 34.00 35.39 38.94 44.09 44.38 43.44 44.31 40.24 36.53 38.34 42.34 39.50 36.89 34.90 34.12 35.27 35.61 33.47 28.18 26.94 32.43 43.26 44.00 46.49 45.11 46.49 50.11 54.73 55.24
42.54 35.14 48.08 48.74 39.34 36.69 33.16 37.55 40.25 39.97 42.95 40.61 40.76 37.53 35.55 36.01 34.03 36.80 38.74 43.57 46.34 45.29 40.04 40.91 37.81 32.80 36.44 41.56 43.87 39.76 36.38 36.85 30.94 31.22 35.93 33.52 32.85 47.13 47.81 46.66 49.11 50.34 54.51 55.50 55.35
40.22 39.21 47.91 47.27 32.91 34.13 38.22 38.37 40.30 40.17 40.29 40.45 39.37 39.44 39.96 34.27 34.61 38.08 42.58 47.68 46.57 44.30 41.60 39.50 32.84 29.47 32.46 37.65 41.12 37.33 38.15 37.98 39.27 40.25 36.88 33.22 35.64 49.15 49.01 49.48 49.75 51.94 53.20 52.70 54.22
42.38 36.60 38.38 41.16 41.75 37.15 35.53 36.52 36.52 42.26 43.48 44.76 42.39 42.03 38.02 35.77 37.86 39.86 43.15 47.01 47.96 45.86 51.99 46.55 37.26 34.16 29.44 35.47 38.31 36.63 39.00 40.69 38.79 33.88 37.49 37.86 40.31 43.13 48.21 48.79 49.15 49.56 50.55 51.41 51.89
40.29 35.73 40.11 34.24 36.78 37.64 38.16 36.66 35.04 36.45 41.82 44.71 42.10 40.12 40.05 37.70 38.17 39.39 42.66 44.13 46.67 50.05 44.96 41.94 36.86 40.20 41.82 42.62 42.89 40.58 40.01 41.68 40.50 40.99 37.39 41.25 41.90 45.02 49.01 49.11 49.71 50.43 51.32 50.76 50.73
39.47 38.93 41.43 39.05 39.13 37.92 37.80 36.10 35.54 37.75 39.54 40.70 39.89 40.65 41.12 38.18 38.83 37.75 40.32 40.17 38.70 41.63 41.96 42.84 37.50 39.91 38.28 42.08 42.22 40.72 43.63 44.76 44.82 44.14 43.73 44.08 44.34 48.28 50.79 51.68 50.74 51.18 51.06 49.65 50.11
44.17 45.33 41.77 38.67 36.85 36.56 36.34 37.76 37.72 40.79 42.96 43.51 42.53 41.13 39.60 40.86 43.34 41.59 43.57 41.98 42.45 41.02 40.53 40.90 38.98 34.86 34.48 40.40 40.62 35.40 39.97 42.47 43.66 45.57 44.62 40.76 45.71 50.08 49.36 50.46 50.54 49.89 50.98 49.26 50.03
MSLP
1018.79 1018.45 1018.11 1017.80 1017.41 1016.97 1016.65 1016.43 1016.22 1015.99 1015.76 1015.57 1015.32 1015.10 1014.87 1014.67 1014.32 1014.14 1012.99 1011.19 1010.93 1010.36 1010.39 1010.35 1010.10 1010.30 1010.54 1010.59 1010.35 1010.38 1011.13 1010.52 1009.60 1008.78 1007.88 1006.62 1006.34 1005.29 1004.32 1004.13 1004.87 1004.98 1003.98 1004.33 1003.20
1018.58 1018.24 1017.93 1017.62 1017.23 1016.93 1016.58 1016.24 1015.89 1015.64 1015.45 1015.21 1015.02 1014.78 1014.62 1014.47 1014.29 1012.94 1009.91 1009.27 1009.48 1010.17 1010.49 1010.44 1010.19 1010.32 1010.76 1010.45 1010.34 1010.22 1010.10 1009.32 1008.63 1008.23 1007.73 1006.87 1006.38 1005.83 1004.88 1004.25 1004.62 1004.83 1004.34 1004.99 1004.99
1018.39 1018.06 1017.75 1017.40 1017.09 1016.77 1016.46 1016.11 1015.73 1015.33 1014.95 1014.89 1014.75 1014.62 1014.47 1014.23 1013.51 1009.94 1007.65 1007.78 1008.83 1009.83 1010.33 1010.27 1010.28 1010.42 1010.81 1010.41 1009.98 1009.55 1008.96 1008.64 1008.06 1007.91 1007.45 1006.90 1006.42 1005.83 1005.43 1005.21 1005.32 1005.58 1005.47 1006.17 1007.38
1018.08 1017.76 1017.44 1017.09 1016.73 1016.45 1016.12 1015.79 1015.44 1015.13 1014.80 1014.47 1014.41 1014.37 1014.35 1014.23 1012.18 1007.57 1006.98 1007.14 1007.44 1009.21 1010.10 1010.15 1010.32 1010.66 1010.58 1010.33 1009.73 1009.54 1008.48 1008.47 1008.17 1007.60 1007.24 1006.82 1006.55 1006.03 1006.09 1006.27 1006.23 1005.76 1006.22 1006.90 1008.24
1017.75 1017.37 1016.96 1016.65 1016.39 1016.02 1015.62 1015.35 1015.10 1014.78 1014.48 1014.20 1013.93 1013.98 1014.13 1013.31 1010.84 1007.68 1007.56 1008.23 1008.08 1009.01 1009.57 1009.83 1010.02 1010.37 1010.25 1009.94 1009.85 1009.06 1008.63 1008.32 1008.08 1007.62 1006.87 1006.91 1006.76 1006.40 1005.95 1006.17 1006.81 1006.82 1006.53 1007.57 1008.69
1017.69 1017.26 1016.84 1016.36 1015.95 1015.48 1015.17 1014.98 1014.57 1014.24 1014.06 1013.87 1013.62 1013.51 1013.49 1011.45 1009.33 1008.70 1008.62 1008.80 1008.53 1008.90 1009.11 1009.52 1009.36 1009.41 1009.71 1009.49 1009.12 1008.19 1008.59 1008.38 1007.92 1007.43 1006.86 1006.94 1006.80 1006.42 1005.91 1005.67 1006.25 1007.27 1007.41 1007.70 1008.02
1017.57 1017.08 1016.58 1016.09 1015.50 1014.97 1014.58 1014.25 1014.06 1013.74 1013.54 1013.36 1013.12 1012.93 1011.70 1009.62 1008.77 1008.43 1008.79 1009.11 1009.16 1008.79 1008.50 1008.54 1008.55 1009.02 1009.18 1008.96 1008.43 1008.42 1008.61 1008.31 1007.45 1007.23 1007.02 1006.77 1006.71 1006.27 1006.09 1005.78 1005.98 1006.93 1007.67 1008.05 1008.68
1017.27 1016.77 1016.26 1015.69 1015.17 1014.66 1014.09 1013.63 1013.23 1012.85 1012.74 1012.58 1012.51 1012.31 1009.58 1008.68 1008.14 1008.31 1007.20 1008.42 1008.61 1008.76 1008.60 1008.01 1008.28 1009.05 1008.99 1008.55 1007.91 1008.26 1008.47 1007.92 1007.08 1007.12 1006.75 1007.05 1005.79 1006.20 1006.17 1006.24 1005.92 1006.63 1007.73 1008.05 1008.46
1016.81 1016.29 1015.80 1015.28 1014.72 1014.26 1013.73 1013.16 1012.33 1011.85 1011.67 1011.72 1011.82 1011.81 1008.77 1007.02 1006.59 1005.59 1006.96 1007.78 1007.29 1007.62 1007.83 1007.88 1008.45 1008.78 1008.69 1008.88 1008.91 1007.95 1007.51 1007.53 1007.20 1006.50 1006.87 1006.87 1006.24 1006.11 1006.12 1006.54 1006.36 1006.27 1006.95 1007.78 1007.82
1016.59 1016.02 1015.46 1014.91 1014.34 1013.84 1013.18 1012.48 1011.02 1010.42 1010.38 1010.71 1010.91 1011.19 1008.07 1005.37 1004.79 1004.38 1005.08 1006.30 1006.92 1006.71 1007.19 1007.72 1007.84 1008.04 1008.32 1008.35 1007.80 1007.84 1007.67 1007.30 1007.11 1006.58 1006.84 1006.99 1006.76 1006.43 1006.22 1006.40 1006.70 1006.18 1006.34 1006.74 1007.08
1016.18 1015.63 1015.03 1014.38 1013.84 1013.30 1012.87 1012.45 1010.90 1010.26 1009.93 1009.09 1008.55 1007.58 1005.21 1004.42 1004.16 1003.64 1004.10 1005.32 1006.37 1005.86 1006.00 1006.72 1006.99 1006.22 1006.92 1007.37 1007.38 1007.17 1007.17 1007.15 1006.85 1006.58 1006.85 1006.97 1007.00 1006.91 1006.62 1006.50 1006.47 1006.15 1006.05 1006.24 1006.64
1015.75 1015.12 1014.42 1013.70 1013.15 1012.64 1012.54 1012.47 1010.89 1010.06 1009.09 1007.73 1006.76 1006.12 1005.00 1004.99 1004.32 1003.25 1003.72 1003.98 1004.66 1004.34 1005.13 1005.82 1004.60 1005.81 1006.48 1006.85 1007.00 1006.73 1006.76 1006.64 1006.52 1006.33 1006.69 1007.05 1007.09 1006.96 1006.67 1006.50 1006.30 1006.19 1005.96 1005.92 1006.11
1015.21 1014.52 1013.83 1013.11 1012.44 1011.96 1011.66 1011.10 1010.21 1010.29 1009.25 1005.41 1004.56 1003.57 1003.33 1004.48 1003.56 1002.56 1003.08 1002.08 1002.38 1003.17 1003.01 1003.12 1003.91 1004.98 1005.27 1005.72 1005.94 1005.70 1005.77 1006.34 1006.60 1006.58 1006.80 1007.22 1007.29 1007.29 1006.71 1006.30 1005.77 1005.72 1005.46 1005.43 1005.69
1014.59 1013.87 1013.25 1012.63 1012.30 1011.81 1011.17 1010.23 1010.28 1010.54 1008.79 1004.45 1003.05 1002.59 1003.21 1003.76 1002.06 1001.10 1001.72 1001.71 1001.29 1001.57 1002.52 1002.73 1002.93 1003.29 1003.96 1004.00 1004.71 1004.65 1005.12 1005.92 1006.55 1007.07 1007.88 1007.91 1007.76 1007.28 1006.94 1006.03 1005.29 1004.81 1004.86 1004.77 1005.12
1013.88 1013.09 1012.55 1012.25 1011.77 1011.32 1010.10 1010.03 1010.07 1009.90 1007.96 1002.93 1003.43 1004.02 1003.32 1002.58 1000.13 999.12 999.98 1000.96 999.69 999.96 1001.25 1001.04 1001.62 1002.39 1002.52 1002.63 1003.75 1003.92 1004.75 1005.75 1006.56 1007.43 1008.08 1008.37 1008.62 1006.13 1006.78 1005.46 1003.79 1003.57 1003.74 1004.12 1004.42
1012.99 1011.92 1011.56 1011.11 1011.06 1010.02 1009.75 1010.03 1009.75 1009.33 1006.19 1003.15 1002.99 1002.47 1002.31 1001.78 1000.70 999.18 999.24 1000.25 999.74 1000.02 1000.68 1000.91 1000.79 1001.36 1001.58 1002.45 1002.92 1003.88 1004.75 1005.91 1006.61 1007.30 1007.39 1007.53 1007.77 1004.64 1004.89 1003.18 1002.81 1002.61 1002.71 1002.77 1003.76
1012.24 1011.09 1010.47 1010.48 1009.96 1009.21 1009.51 1009.88 1009.77 1007.70 1004.48 1002.93 1002.38 1002.17 1002.27 1000.90 1000.26 1000.01 999.14 999.91 999.34 999.72 1000.06 1000.61 1000.23 1000.53 1000.80 1001.81 1002.53 1003.45 1004.83 1006.71 1007.56 1007.55 1006.23 1007.36 1007.28 1003.91 1002.73 1002.05 1001.65 1001.51 1002.02 1002.43 1003.47
1011.68 1010.16 1009.45 1009.21 1009.05 1009.21 1009.40 1010.07 1008.67 1005.40 1004.04 1002.68 1002.32 1002.06 1002.07 1000.95 999.99 999.96 999.02 999.44 999.27 998.74 999.71 999.81 1000.07 999.44 999.67 1000.24 1001.37 1002.54 1003.98 1005.45 1006.68 1007.03 1006.86 1007.03 1004.58 1002.56 1001.48 1000.57 1000.68 1000.58 1001.33 1002.44 1003.30
1010.98 1009.97 1009.49 1008.52 1007.88 1008.79 1009.57 1009.07 1007.34 1005.13 1003.71 1002.68 1002.74 1002.64 1002.18 1001.13 1000.65 999.89 999.20 998.26 998.18 998.16 998.46 998.99 999.19 998.98 999.08 999.56 1000.71 1002.02 1003.63 1004.77 1006.24 1007.09 1007.39 1006.00 1003.93 1001.69 1000.73 1000.03 1000.01 1000.60 1001.60 1002.70 1003.46
1011.45 1010.65 1009.04 1008.22 1008.16 1008.73 1009.21 1007.98 1006.63 1005.55 1004.30 1003.47 1003.05 1003.22 1003.04 1002.13 1001.02 999.27 999.16 997.90 997.69 997.77 997.72 998.05 999.07 998.53 998.70 999.60 999.96 1000.70 1002.58 1004.66 1006.47 1007.56 1007.25 1005.95 1004.90 1003.25 1001.69 1000.29 1000.27 1001.22 1001.83 1002.95 1003.91
1011.71 1010.67 1008.55 1008.39 1008.65 1009.03 1008.74 1007.63 1006.06 1004.93 1004.35 1003.52 1003.09 1003.40 1003.49 1003.00 1001.81 1000.01 998.41 997.04 996.86 997.01 997.34 998.14 998.51 998.55 998.65 998.85 999.48 1000.40 1001.92 1004.07 1005.74 1006.79 1007.08 1007.25 1005.58 1003.80 1003.24 1002.18 1000.63 1001.72 1002.02 1003.32 1004.15
1012.15 1010.97 1008.84 1008.62 1009.07 1009.27 1008.72 1007.45 1006.30 1004.46 1003.45 1002.65 1002.58 1003.15 1003.44 1003.14 1002.08 1000.37 998.40 996.85 996.02 996.32 997.62 998.30 999.14 999.00 998.56 998.39 998.79 999.71 1001.29 1003.01 1004.93 1006.69 1007.12 1007.30 1006.04 1004.39 1003.57 1001.81 1000.92 1001.86 1002.45 1003.61 1004.62
1012.48 1011.20 1009.00 1008.88 1009.42 1008.95 1008.16 1007.12 1005.92 1004.35 1003.22 1002.55 1002.10 1002.93 1003.13 1003.15 1002.25 1000.41 998.34 996.76 996.42 996.71 997.71 998.63 999.72 1000.22 999.29 999.17 999.06 999.52 1000.51 1001.73 1003.24 1005.01 1005.99 1006.54 1007.00 1005.75 1005.55 1003.84 1002.52 1002.33 1003.37 1004.37 1005.17
1012.90 1011.86 1010.47 1009.88 1009.84 1009.67 1008.53 1007.20 1005.82 1004.23 1002.70 1001.90 1001.98 1002.36 1002.76 1002.67 1002.12 1000.67 998.80 997.69 997.23 997.09 997.86 998.56 1000.02 1000.38 1000.41 999.75 999.75 999.69 1000.17 1000.97 1002.20 1003.96 1005.19 1005.72 1006.97 1008.15 1007.57 1004.99 1004.07 1003.71 1004.35 1004.97 1005.60
1013.50 1013.01 1012.31 1011.09 1009.74 1009.58 1008.95 1008.06 1006.70 1005.11 1003.69 1002.52 1001.94 1002.27 1002.17 1001.94 1001.65 1001.07 999.81 999.20 997.65 997.75 998.68 999.25 1000.65 1000.53 1000.82 1000.40 1000.04 1000.20 1000.06 1000.45 1001.60 1002.76 1004.15 1005.80 1006.65 1007.05 1007.51 1006.01 1005.33 1005.00 1005.27 1005.80 1006.54
1014.43 1013.96 1012.68 1011.62 1010.50 1009.56 1008.85 1007.95 1007.07 1005.67 1004.53 1003.17 1002.63 1002.42 1002.29 1002.29 1002.28 1002.23 1001.72 1001.56 999.75 998.85 999.31 1000.13 1001.65 1001.77 1002.43 1001.77 1001.04 1001.48 1001.53 1001.18 1001.20 1002.35 1003.78 1005.01 1006.37 1006.99 1007.20 1006.98 1006.87 1006.30 1006.64 1007.23 1007.65
1014.80 1014.00 1013.25 1011.71 1010.94 1010.13 1009.35 1008.32 1007.28 1006.16 1004.30 1003.71 1003.27 1002.71 1002.50 1002.50 1002.49 1002.62 1002.77 1002.27 1001.39 1000.86 1000.33 1001.33 1002.51 1003.65 1004.50 1003.31 1002.30 1002.78 1003.11 1002.73 1002.22 1002.65 1003.02 1004.69 1005.75 1006.81 1007.89 1007.97 1008.45 1008.26 1008.25 1008.60 1008.58
Wind_Speed
14 14 14 14 16 13 11 10 12 13 13 13 14 14 13 13 14 9 12 15 13 19 8 6 2 7 1 4 3 4 3 8 7 6 3 12 6 6 5 3 7 7 7 9 18
14 14 14 15 15 14 15 14 13 12 16 13 13 12 12 12 12 18 20 24 25 12 3 6 3 7 4 6 4 6 6 8 6 6 2 6 4 6 5 1 4 11 15 13 6
14 15 15 15 15 14 15 17 16 16 12 14 12 11 10 9 7 12 12 24 26 19 7 5 2 2 5 3 6 5 8 3 3 9 9 6 8 4 3 2 2 6 9 10 8
15 15 16 16 15 15 16 17 17 17 17 13 13 10 9 3 8 4 8 22 19 15 9 6 5 4 7 10 5 5 4 5 3 5 4 5 4 5 4 3 5 11 10 8 11
16 18 18 17 16 16 15 16 16 16 16 17 12 11 6 10 16 14 24 21 8 15 15 8 5 6 6 6 4 9 4 2 7 12 6 4 4 3 5 1 4 9 12 12 8
18 20 20 20 20 18 17 15 15 15 16 17 18 11 8 25 16 20 17 11 9 15 13 9 8 10 3 8 20 5 13 10 10 13 5 8 5 5 6 6 6 6 10 12 12
19 20 21 21 21 21 20 17 17 17 18 18 18 12 16 22 10 9 15 7 6 8 10 14 14 4 8 3 8 13 5 8 16 11 7 5 9 6 2 6 7 8 6 10 13
20 19 20 21 21 21 21 21 20 20 21 21 18 11 18 10 20 27 32 24 17 17 17 11 13 6 4 5 6 11 4 14 11 10 6 9 21 6 4 5 10 5 3 5 8
20 19 20 22 23 22 21 21 25 26 24 22 12 10 15 9 19 26 19 17 10 14 17 16 7 6 3 4 4 5 12 6 5 8 4 10 13 5 4 2 10 7 4 4 3
22 20 20 22 23 22 21 22 27 26 12 8 8 5 9 10 10 9 12 24 12 11 14 18 6 6 6 6 10 4 5 3 6 5 7 6 3 4 3 3 7 9 8 8 6
24 22 21 21 21 20 15 6 7 3 4 9 10 14 19 7 11 10 9 16 12 6 13 19 14 18 17 10 5 2 6 8 5 9 7 8 6 7 5 7 6 9 7 7 7
25 24 23 22 22 21 12 4 8 5 12 18 22 25 29 19 18 23 10 12 14 14 18 14 22 13 12 9 12 12 6 5 4 6 12 7 10 7 7 7 6 9 8 8 7
23 23 24 23 21 13 5 9 7 11 8 16 22 22 21 21 22 29 13 11 19 17 20 16 13 17 16 15 16 16 13 4 4 5 1 2 6 2 6 6 11 13 13 7 11
25 24 23 23 12 4 11 4 4 4 5 10 5 7 3 6 16 19 21 12 12 22 15 13 9 24 18 21 16 16 8 8 4 5 4 3 8 6 6 18 19 16 15 12 11
26 26 24 18 8 8 10 8 9 2 6 4 5 4 11 16 5 13 19 13 21 15 14 12 23 21 24 16 16 9 8 8 7 5 5 5 2 7 4 18 21 20 21 16 10
28 29 26 9 4 12 10 8 6 2 8 4 1 10 17 14 22 6 13 11 10 14 13 11 18 17 16 16 18 6 6 4 2 5 5 6 4 16 14 24 18 9 14 13 10
31 32 20 5 4 3 1 2 1 4 7 2 5 12 19 7 19 20 19 17 10 16 17 20 16 20 13 15 9 14 8 2 1 2 13 8 7 20 9 19 22 16 13 12 9
34 29 5 6 6 5 0 4 6 6 7 14 15 7 7 9 8 19 14 18 17 5 12 17 15 19 17 8 12 14 11 7 5 6 5 6 15 9 12 24 14 15 11 9 9
27 4 4 3 3 6 4 4 5 4 8 11 17 3 5 5 8 15 13 18 17 16 7 14 12 10 16 9 16 7 7 9 6 0 4 6 10 15 17 14 6 10 10 9 9
8 4 4 3 4 3 2 5 5 7 18 18 10 3 4 8 7 7 12 9 22 16 7 5 7 9 17 14 12 11 9 4 3 6 5 2 6 2 17 11 8 11 10 12 15
3 4 3 4 2 1 3 5 12 14 14 3 3 2 4 3 3 4 7 4 21 19 14 1 4 7 16 15 14 5 6 6 7 5 6 1 7 5 13 25 15 10 15 16 13
4 5 2 0 2 0 3 5 7 10 6 11 5 8 6 3 2 2 4 5 15 20 15 3 4 0 8 7 16 10 9 7 7 3 2 4 9 14 22 7 15 17 20 18 14
6 4 3 5 6 6 6 8 7 9 9 4 5 6 4 4 4 7 8 14 9 15 11 6 1 2 4 4 4 8 6 8 6 4 7 7 3 15 23 9 8 21 17 14 15
3 5 5 3 3 8 8 7 13 13 6 10 6 5 3 3 8 4 4 2 9 14 7 11 3 6 6 6 4 6 6 8 8 5 7 5 7 1 19 8 11 15 16 16 17
5 3 1 8 10 14 9 5 10 10 8 12 2 10 4 2 1 2 4 7 7 16 5 7 2 3 8 8 6 7 5 6 6 10 8 11 12 16 11 8 8 14 18 18 18
3 4 3 9 12 15 8 6 8 10 4 7 13 10 9 4 4 4 6 3 5 4 6 4 2 5 8 11 9 7 14 9 13 11 9 18 12 21 10 5 8 14 13 13 15
3 4 4 6 9 10 11 12 8 14 6 7 8 2 6 4 6 3 3 6 4 4 5 5 5 4 3 9 3 8 9 8 7 7 23 14 15 15 10 12 6 9 7 7 10
Wind_Direction
335 332 329 326 327 322 307 305 306 308 307 308 305 307 308 306 306 297 248 221 204 235 278 320 218 197 172 235 222 149 176 218 219 215 247 306 332 304 250 93 80 328 64 307 140
332 330 326 325 322 322 328 320 309 301 306 298 299 298 309 318 302 270 243 229 223 229 237 178 187 177 186 201 236 172 204 227 202 225 255 275 334 325 286 314 64 14 26 360 139
325 323 321 320 319 320 317 317 315 311 300 302 307 313 311 323 305 244 252 238 226 222 231 174 279 163 206 232 210 213 229 212 204 239 249 273 311 341 271 46 76 69 28 25 11
316 315 310 307 309 310 309 308 308 309 309 302 301 307 309 284 254 228 35 7 189 197 194 208 173 173 180 215 210 247 241 213 290 266 277 250 235 291 11 61 130 92 94 72 2
309 311 309 305 303 300 296 300 303 304 301 301 290 284 291 230 242 281 303 339 151 178 197 198 172 150 174 186 272 243 265 250 225 264 245 297 240 246 266 51 42 95 84 114 82
327 320 314 309 301 293 290 287 286 289 296 298 296 275 244 252 260 273 294 324 183 189 198 172 201 194 221 203 196 224 222 250 246 250 249 235 236 178 239 340 13 85 106 112 140
329 326 320 314 308 299 290 281 276 278 287 291 289 277 251 242 259 275 302 274 288 236 197 206 210 190 176 259 206 240 250 221 236 244 213 118 273 222 267 349 334 28 119 128 139
330 327 326 323 321 320 313 297 281 278 284 283 283 271 261 234 245 250 253 264 260 248 254 222 194 202 169 307 351 202 188 236 232 229 211 165 257 219 287 4 304 342 65 150 157
328 327 325 321 319 317 313 305 293 284 276 276 270 240 270 245 234 241 237 231 223 217 231 231 162 194 218 151 325 230 224 211 223 220 149 187 251 236 228 229 284 298 308 295 222
328 323 321 318 316 312 307 305 288 283 276 235 225 248 255 231 239 240 191 213 213 212 194 210 177 169 191 150 209 232 163 195 205 256 190 209 227 273 270 225 246 279 283 294 264
326 324 320 317 314 311 317 338 349 21 225 210 196 235 278 259 260 270 155 168 204 220 182 198 195 204 202 193 237 265 197 200 208 228 165 207 205 229 249 278 259 267 268 265 270
323 320 317 312 309 304 297 230 226 337 285 237 243 237 241 265 286 280 213 159 181 191 179 179 210 191 206 181 202 240 226 218 255 190 196 221 237 228 231 238 238 259 251 254 262
319 314 312 309 309 302 218 223 268 342 269 276 239 236 237 216 241 263 238 196 181 185 194 188 199 180 193 205 204 217 218 176 178 173 275 102 296 271 271 251 256 249 256 229 234
316 312 310 311 305 312 294 276 324 280 286 275 218 16 55 240 261 238 240 227 174 198 194 217 181 181 196 212 201 216 182 207 208 144 196 97 264 281 262 259 251 244 246 234 201
314 310 307 308 285 266 269 307 299 162 280 300 62 129 324 205 232 226 204 228 194 165 181 190 183 186 197 203 197 219 187 193 217 188 136 161 100 247 300 271 248 246 237 234 198
316 314 320 301 223 250 267 276 289 209 250 303 64 340 344 299 223 294 160 212 239 181 194 208 179 186 198 209 201 178 162 179 191 182 241 176 172 272 254 240 258 216 224 220 204
323 322 318 262 235 232 22 108 229 176 320 253 346 355 325 268 208 224 170 186 189 168 193 203 218 197 176 193 205 180 137 228 245 214 236 123 230 238 258 243 231 236 217 204 185
329 317 267 207 215 253 19 53 231 246 253 302 351 356 319 327 224 213 177 187 216 154 179 186 212 186 200 182 191 195 162 147 168 206 248 137 251 245 237 246 253 224 195 144 168
325 314 298 256 291 148 95 195 238 272 334 322 335 338 322 345 8 169 226 193 200 197 146 177 209 198 207 192 179 190 166 181 131 293 182 219 273 275 253 252 198 145 137 144 135
321 325 269 189 78 97 157 248 250 290 314 306 299 248 340 328 338 152 159 247 192 191 195 122 179 199 208 197 216 157 167 109 23 158 240 289 313 296 354 258 141 128 143 105 124
360 351 278 85 100 32 281 267 290 284 292 256 210 232 250 294 326 332 156 249 185 189 196 84 103 218 180 203 197 143 168 71 115 146 171 59 270 258 325 321 149 137 120 121 116
337 330 322 3 29 195 277 271 295 291 277 235 260 202 208 213 276 268 212 234 180 202 199 173 96 298 195 192 200 176 176 140 126 215 116 138 273 357 331 280 130 129 128 132 124
326 277 303 73 354 331 293 294 289 299 298 235 227 180 163 193 217 226 194 236 188 184 183 161 302 357 73 56 2 149 158 152 116 106 191 130 272 1 321 7 98 124 126 119 119
336 332 328 353 305 326 317 328 331 312 315 317 62 153 117 228 210 278 174 217 236 187 147 125 165 154 172 179 167 127 163 151 140 126 160 168 126 194 288 360 64 95 105 109 108
21 323 359 309 330 334 330 278 325 349 327 354 35 15 351 212 44 129 9 353 287 142 93 111 120 80 53 23 81 29 169 167 146 145 133 177 148 149 266 6 354 95 104 107 109
1 334 302 289 299 332 347 332 326 324 272 5 18 10 9 53 2 46 29 340 77 0 95 24 85 58 27 359 55 68 28 56 86 101 65 122 121 142 276 354 16 63 73 104 111
309 265 266 298 324 345 338 340 320 350 326 2 343 327 336 326 295 269 202 262 284 354 98 80 98 62 16 333 6 35 350 325 83 142 139 145 146 149 157 98 21 51 73 106 113